Location: Hylvaty SDH
(49.9612°N, 16.4057°E)
Time: 00:49:03
(UTC+01:00)

Transit 4A - Visible Passes

Search period start: 26 January 2020 00:00
Search period end: 05 February 2020 00:00
Orbit: 872 x 973 km, 66.8° (Epoch: 25 January)

Date Brightness Start Highest point End Pass type
(mag) Time Alt. Az. Time Alt. Az. Time Alt. Az.
26 Jan 9.7 05:31:30 10° S 05:36:43 32° ESE 05:41:51 10° NE visible
27 Jan 9.0 05:40:12 10° S 05:45:52 44° ESE 05:51:26 10° NE visible
28 Jan 10.7 04:07:58 10° ESE 04:09:52 12° E 04:11:46 10° E visible
28 Jan 8.3 05:49:11 10° SSW 05:55:06 63° ESE 06:00:54 10° NE visible
29 Jan 10.3 04:15:02 10° SE 04:18:50 18° ESE 04:22:36 10° ENE visible
29 Jan 7.9 05:58:22 10° SSW 06:04:23 85° SE 06:10:18 10° NE visible
30 Jan 9.8 04:23:06 10° SSE 04:27:53 25° ESE 04:32:36 10° NE visible
30 Jan 7.8 06:07:45 10° SW 06:13:45 72° NW 06:19:37 10° NE visible
31 Jan 9.2 04:31:36 10° S 04:37:00 36° ESE 04:42:18 10° NE visible
31 Jan 8.0 06:17:20 10° WSW 06:23:10 54° NW 06:28:56 10° NNE visible
01 Feb 8.6 04:41:51 18° S 04:46:10 50° ESE 04:51:50 10° NE visible
01 Feb 8.3 06:27:05 10° WSW 06:32:41 41° NW 06:38:13 10° NNE visible
02 Feb 10.3 03:08:37 12° ESE 03:10:05 14° ESE 03:12:50 10° ENE visible
02 Feb 8.0 04:52:11 28° SSW 04:55:25 70° ESE 05:01:16 10° NE visible
02 Feb 8.6 06:36:58 10° W 06:42:15 32° NW 06:47:30 10° NNE visible
03 Feb 9.9 03:18:39 20° ESE 03:19:04 20° ESE 03:23:13 10° ENE visible
03 Feb 7.7 05:02:13 37° SW 05:04:44 86° NW 05:10:38 10° NE visible
03 Feb 8.8 06:46:58 10° W 06:51:53 26° NNW 06:56:47 10° NNE visible
04 Feb 9.4 03:28:28 28° ESE 03:28:28 28° ESE 03:33:06 10° NE visible
04 Feb 7.8 05:12:00 40° WSW 05:14:07 64° NW 05:19:58 10° NNE visible
